Mitchell, SD

5:03 PM CDT on October 21, 2017 (GMT -0500)
Mitchell Municipal

Weather History for KMHE - July, 2013

Change the Weather History Date:

Sunday, July 7, 2013

  Actual Average Record
Temperature  
Mean Temperature 79 °F 75 °F  
Max Temperature 90 °F 87 °F 103 °F (1930)
Min Temperature 68 °F 63 °F 45 °F (1922)
Degree Days  
Heating Degree Days 0 0  
Month to date heating degree days 0 0  
Since 1 June heating degree days 50 35  
Since 1 July heating degree days 0 0  
Cooling Degree Days 14 10  
Month to date cooling degree days 78 68  
Year to date cooling degree days 302 278  
Since 1 June cooling degree days 245 238  
Growing Degree Days 29 (Base 50)    
Moisture  
Dew Point 67 °F    
Average Humidity 75    
Maximum Humidity 93    
Minimum Humidity 53    
Precipitation  
Precipitation 0.12 in 0.12 in 2.50 in (1918)
Month to date precipitation 0.12 0.86  
Year to date precipitation 12.21 11.72  
Snow  
Snow 0.00 in - 0.00 in ()
Month to date snowfall 0.0  
Since 1 June snowfall 0.0  
Since 1 July snowfall 0.0  
Snow Depth 0.00 in    
Sea Level Pressure  
Sea Level Pressure 29.84 in    
Wind  
Wind Speed 4 mph (NNE)    
Max Wind Speed 26 mph    
Max Gust Speed 32 mph    
Visibility 9 miles    
Events Rain , Thunderstorm    
T = Trace of Precipitation, MM = Missing Value Source: NWS Daily Summary

Daily Weather History Graph

Daily Weather History Graph

Search for Another Location

Airport or City:

Trip Planner

Search our weather history database for the weather conditions in past years. The results will help you decide how hot, cold, wet, or windy it might be!

Date:

Astronomy

Jul. 07, 2013 Rise Set
Actual Time 5:57 AM CDT 9:16 PM CDT
Civil Twilight 5:22 AM CDT 9:51 PM CDT
Nautical Twilight 4:36 AM CDT 10:37 PM CDT
Astronomical Twilight 3:39 AM CDT 11:34 PM CDT
Moon 5:37 AM CDT (7/7) 8:38 PM CDT (7/7)
Length of Visible Light 16h 28m
Length of Day
15h 18m
Waning Crescent, 0% of the Moon is Illuminated
Jul 7
Waning Crescent
Jul 8
New
Jul 15
First Quarter
Jul 22
Full
Jul 29
Last Quarter

Hourly Weather History & Observations

Time (CDT) Temp. Heat Index Dew Point Humidity Pressure Visibility Wind Dir Wind Speed Gust Speed Precip Events Conditions
12:53 AM 77.0 °F - 66.9 °F 71% 29.75 in 10.0 mi SSE 8.1 mph - N/A   Clear
1:53 AM 75.0 °F - 66.9 °F 76% 29.76 in 10.0 mi SSE 4.6 mph - N/A   Clear
2:53 AM 73.0 °F - 66.9 °F 81% 29.77 in 9.0 mi Calm Calm - N/A   Clear
3:53 AM 71.1 °F - 66.9 °F 87% 29.77 in 9.0 mi ESE 3.5 mph - N/A   Clear
4:53 AM 69.1 °F - 66.0 °F 90% 29.77 in 7.0 mi Calm Calm - N/A   Clear
5:53 AM 69.1 °F - 66.0 °F 90% 29.78 in 7.0 mi Calm Calm - N/A   Clear
6:53 AM 70.0 °F - 66.0 °F 87% 29.81 in 6.0 mi South 4.6 mph - N/A   Clear
7:53 AM 73.0 °F - 68.0 °F 84% 29.80 in 7.0 mi Calm Calm - N/A   Clear
8:53 AM 77.0 °F - 68.0 °F 74% 29.82 in 8.0 mi Calm Calm - N/A   Clear
9:53 AM 80.1 °F 82.7 °F 68.0 °F 67% 29.83 in 10.0 mi North 3.5 mph - N/A   Clear
10:53 AM 82.9 °F 86.5 °F 69.1 °F 63% 29.84 in 10.0 mi East 4.6 mph - N/A   Clear
11:53 AM 86.0 °F 90.7 °F 70.0 °F 59% 29.85 in 10.0 mi NNE 6.9 mph - N/A   Clear
12:53 PM 88.0 °F 92.9 °F 70.0 °F 55% 29.85 in 10.0 mi NE 6.9 mph - N/A   Clear
1:53 PM 88.0 °F 93.8 °F 71.1 °F 57% 29.86 in 10.0 mi Variable 3.5 mph - N/A   Clear
2:53 PM 89.1 °F 94.1 °F 70.0 °F 53% 29.85 in 10.0 mi Calm Calm - N/A   Clear
3:53 PM 89.1 °F 95.0 °F 71.1 °F 55% 29.84 in 10.0 mi NNE 5.8 mph - N/A   Mostly Cloudy
4:53 PM 84.0 °F 86.5 °F 66.9 °F 56% 29.85 in 10.0 mi NNW 3.5 mph - N/A   Partly Cloudy
5:53 PM 78.1 °F - 63.0 °F 60% 29.87 in 10.0 mi North 13.8 mph - N/A   Partly Cloudy
6:32 PM 75.2 °F - 64.4 °F 69% 29.91 in 10.0 mi North 21.9 mph 32.2 mph N/A Thunderstorm Partly Cloudy
6:53 PM 72.0 °F - 64.9 °F 78% 29.92 in 10.0 mi NNE 15.0 mph - 0.00 in Rain , Thunderstorm Light Thunderstorms and Rain
7:35 PM 69.8 °F - 66.2 °F 88% 29.91 in 5.0 mi ENE 13.8 mph - 0.08 in Rain Rain
7:53 PM 70.0 °F - 66.0 °F 87% 29.91 in 10.0 mi North 9.2 mph - 0.12 in Rain Light Rain
8:53 PM 72.0 °F - 68.0 °F 87% 29.90 in 10.0 mi North 3.5 mph - 0.00 in   Scattered Clouds
9:53 PM 70.0 °F - 68.0 °F 93% 29.88 in 10.0 mi NNW 5.8 mph - N/A   Clear
10:53 PM 70.0 °F - 66.9 °F 90% 29.92 in 10.0 mi NNW 3.5 mph - N/A   Clear
11:53 PM 68.0 °F - 66.0 °F 93% 29.94 in 10.0 mi Calm Calm - N/A   Clear